Regional Weather Roundup
Issued by NWS

Home | Current Version | Previous Version | Text Only | Print | Product List | Glossary On
Versions: 1 2 3 4 5 6 7 8 9 10 11 12 13 14 15 16 17 18 19 20 21 22 23 24 25 26 27 28 29 30 31 32 33 34 35 36 37 38 39 40 41 42 43 44 45 46 47 48 49 50
000
ASUS43 KLSX 221307
RWRMO

WEATHER SUMMARY FOR MISSOURI
NATIONAL WEATHER SERVICE SPRINGFIELD MO
700 AM CST SUN JAN 22 2017

NOTE: "FAIR" INDICATES FEW OR NO CLOUDS BELOW 12,000 FEET WITH NO
       SIGNIFICANT WEATHER AND/OR OBSTRUCTIONS TO VISIBILITY.
       CURRENT SKY AND/OR WEATHER CONDITIONS ARE NOT AVAILABLE FOR
       CHILLICOTHE AND FARMINGTON.

MOZ001>031-035>038-043-044-053-054-221400-
...NORTHERN AND WESTERN MISSOURI...

CITY           SKY/WX    TMP DP  RH WIND       PRES   REMARKS
KANSAS CTY INT CLOUDY    44  39  82 N9        29.60R
KANSAS C DTWN  CLOUDY    45  41  86 NE6       29.60R
LEE`S SUMMIT   CLOUDY    44  43  96 N10       29.59R
ST JOSEPH      CLOUDY    37  37 100 N10       29.64R WCI  30
CHILLICOTHE      N/A     40  39  97 N8        29.61R
KIRKSVILLE     CLOUDY    39  39 100 NE6       29.60R FOG

$$
MOZ066>068-077>081-088>096-101>105-221400-
...SOUTHWEST MISSOURI...

CITY           SKY/WX    TMP DP  RH WIND       PRES   REMARKS
SPRINGFIELD    LGT RAIN  50  48  93 E13       29.43R
JOPLIN         LGT RAIN  48  47  96 NE12G24   29.45R
BRANSON        LGT RAIN  50  50 100 NE5       29.40R VSB 1/2

$$
MOZ032>034-039>042-045>050-055>058-069>072-221400-
...CENTRAL MISSOURI...

CITY           SKY/WX    TMP DP  RH WIND       PRES   REMARKS
COLUMBIA       CLOUDY    45  42  89 NW5       29.56R
JEFFERSON CITY LGT RAIN  47  43  86 NW9       29.55R
ROLLA          CLOUDY    47  44  90 NE9       29.48S
SEDALIA        LGT RAIN  46  43  89 E9        29.58R FOG
WHITEMAN AFB   DRIZZLE   44  44 100 NE9       29.56R
WARRENSBURG    LGT RAIN  43  41  93 N9        29.57R
OSAGE BEACH    LGT RAIN  47  46  97 N9        29.51S

$$
MOZ051-052-059>065-221400-
...EAST CENTRAL MISSOURI...

CITY           SKY/WX    TMP DP  RH WIND       PRES   REMARKS
ST LOUIS INTL  CLOUDY    49  42  77 N10       29.53R
SPIRIT OF STL  CLOUDY    48  44  86 NE6       29.53R
ST CHARLES     CLOUDY    46  43  89 N13       29.54R

$$
MOZ072>076-082>087-097>100-106>115-221400-
...SOUTH CENTRAL AND SOUTHEAST MISSOURI...

CITY           SKY/WX    TMP DP  RH WIND       PRES   REMARKS
CAPE GIRARDEAU MOCLDY    51  48  89 E5        29.45F
FARMINGTON     FOG       51  50  96 NW3       29.48R VSB 1/2
POPLAR BLUFF   CLOUDY    53  51  93 NE8       29.41F
WEST PLAINS    PTCLDY    52  51  97 N6        29.41F

$$



USA.gov is the U.S. government's official web portal to all federal, state and local government web resources and services.